• In Latvia
  • List of Countries
  • For 7 days
  • Water Temperature
  • Satellite Maps
  • Weather Map
  • Weather Widgets
  • user-avatar
    Login

    Hourly Weather Skrunda

    Today, 24 October, Wednesday

    Time Temperature Precipitation Wind Pressure Humidity
    00:00 +5°C° 0.4 mm 8 mps 734 mmHg 80%
    01:00 +5°C° 0.4 mm 9 mps 734 mmHg 78%
    02:00 +5°C° 0.3 mm 9 mps 734 mmHg 78%
    03:00 +5°C° 0.3 mm 9 mps 735 mmHg 78%
    04:00 +5°C° 0.3 mm 9 mps 735 mmHg 78%
    05:00 +5°C° 0.5 mm 9 mps 735 mmHg 78%
    06:00 +5°C° 0.5 mm 9 mps 736 mmHg 79%
    07:00 +5°C° 0.5 mm 9 mps 736 mmHg 80%
    08:00 +5°C° 0.4 mm 9 mps 737 mmHg 79%
    09:00 +5°C° 0.4 mm 9 mps 738 mmHg 78%
    10:00 +5°C° 0.4 mm 9 mps 739 mmHg 77%
    11:00 +6°C° 0.3 mm 8 mps 740 mmHg 75%
    12:00 +6°C° 0.3 mm 8 mps 742 mmHg 73%
    13:00 +6°C° 0.3 mm 8 mps 743 mmHg 72%
    14:00 +6°C° 0.2 mm 8 mps 744 mmHg 73%
    15:00 +5°C° 0.2 mm 7 mps 745 mmHg 75%
    16:00 +5°C° 0.2 mm 7 mps 746 mmHg 76%
    17:00 +4°C° 0.1 mm 6 mps 746 mmHg 77%
    18:00 +5°C° 0.1 mm 5 mps 747 mmHg 78%
    19:00 +3°C° 0.1 mm 5 mps 748 mmHg 79%
    20:00 +3°C° 0 mm 5 mps 748 mmHg 80%
    21:00 +4°C° 0 mm 4 mps 748 mmHg 81%
    22:00 +4°C° 0 mm 4 mps 748 mmHg 82%
    23:00 +3°C° 0 mm 3 mps 748 mmHg 84%

    Tomorrow, 25 October, Thursday

    Time Temperature Precipitation Wind Pressure Humidity
    00:00 +3°C° 0 mm 3 mps 748 mmHg 85%
    01:00 +3°C° 0 mm 3 mps 748 mmHg 86%
    02:00 +3°C° 0 mm 3 mps 748 mmHg 86%
    03:00 +3°C° 0 mm 3 mps 747 mmHg 86%
    04:00 +3°C° 0 mm 3 mps 747 mmHg 86%
    05:00 +3°C° 0 mm 3 mps 746 mmHg 86%
    06:00 +4°C° 0 mm 2 mps 745 mmHg 85%
    07:00 +4°C° 0 mm 2 mps 745 mmHg 84%
    08:00 +5°C° 0.2 mm 2 mps 744 mmHg 80%
    09:00 +6°C° 0.2 mm 2 mps 743 mmHg 75%
    10:00 +7°C° 0.2 mm 2 mps 743 mmHg 70%
    11:00 +7°C° 0.7 mm 2 mps 742 mmHg 72%
    12:00 +6°C° 0.7 mm 2 mps 742 mmHg 73%
    13:00 +6°C° 0.7 mm 2 mps 742 mmHg 75%
    14:00 +6°C° 0.5 mm 2 mps 742 mmHg 79%
    15:00 +6°C° 0.5 mm 1 mps 742 mmHg 82%
    16:00 +6°C° 0.5 mm 1 mps 742 mmHg 86%
    17:00 +6°C° 0 mm 1 mps 743 mmHg 87%
    18:00 +5°C° 0 mm 1 mps 743 mmHg 88%
    19:00 +5°C° 0 mm 1 mps 744 mmHg 89%
    20:00 +5°C° 0 mm 1 mps 744 mmHg 90%
    21:00 +4°C° 0 mm 1 mps 744 mmHg 90%
    22:00 +4°C° 0 mm 1 mps 745 mmHg 91%
    23:00 +4°C° 0.1 mm 1 mps 745 mmHg 91%

    Day after tomorrow, 26 October, Friday

    Time Temperature Precipitation Wind Pressure Humidity
    00:00 +4°C° 0.1 mm 1 mps 745 mmHg 90%
    01:00 +5°C° 0.1 mm 1 mps 745 mmHg 90%
    02:00 +4°C° 0.1 mm 2 mps 745 mmHg 90%
    03:00 +4°C° 0.1 mm 2 mps 745 mmHg 90%
    04:00 +4°C° 0.1 mm 2 mps 745 mmHg 89%
    05:00 +4°C° 0 mm 2 mps 745 mmHg 89%
    06:00 +4°C° 0 mm 2 mps 745 mmHg 88%
    07:00 +4°C° 0 mm 2 mps 745 mmHg 87%
    08:00 +5°C° 0 mm 2 mps 745 mmHg 81%
    09:00 +6°C° 0 mm 2 mps 745 mmHg 75%
    10:00 +7°C° 0 mm 2 mps 745 mmHg 70%
    11:00 +8°C° 0.1 mm 2 mps 745 mmHg 71%
    12:00 +8°C° 0.1 mm 2 mps 745 mmHg 73%
    13:00 +8°C° 0.1 mm 2 mps 745 mmHg 74%
    14:00 +7°C° 0.6 mm 2 mps 744 mmHg 80%
    15:00 +7°C° 0.6 mm 2 mps 743 mmHg 86%
    16:00 +6°C° 0.6 mm 2 mps 743 mmHg 92%
    17:00 +6°C° 1.4 mm 2 mps 742 mmHg 93%
    18:00 +6°C° 1.4 mm 2 mps 741 mmHg 95%
    19:00 +5°C° 1.4 mm 3 mps 740 mmHg 96%
    20:00 +5°C° 2 mm 3 mps 740 mmHg 96%
    21:00 +5°C° 2 mm 3 mps 739 mmHg 95%
    22:00 +5°C° 2 mm 3 mps 738 mmHg 94%
    23:00 +5°C° 0.2 mm 3 mps 738 mmHg 93%

    27 October, Saturday

    Time Temperature Precipitation Wind Pressure Humidity
    00:00 +5°C° 0.2 mm 4 mps 738 mmHg 92%
    01:00 +4°C° 0.2 mm 4 mps 738 mmHg 91%
    02:00 +4°C° 0.9 mm 4 mps 738 mmHg 90%
    03:00 +4°C° 0.9 mm 4 mps 738 mmHg 89%
    04:00 +3°C° 0.9 mm 5 mps 739 mmHg 87%
    05:00 +4°C° 0.1 mm 4 mps 740 mmHg 87%
    06:00 +3°C° 0.1 mm 4 mps 741 mmHg 87%
    07:00 +3°C° 0.1 mm 3 mps 741 mmHg 87%
    08:00 +4°C° 0 mm 3 mps 743 mmHg 83%
    09:00 +4°C° 0 mm 3 mps 744 mmHg 79%
    10:00 +5°C° 0 mm 3 mps 745 mmHg 75%
    11:00 +5°C° 0.1 mm 3 mps 746 mmHg 72%
    12:00 +5°C° 0.1 mm 3 mps 747 mmHg 70%
    13:00 +6°C° 0.1 mm 2 mps 748 mmHg 67%
    14:00 +6°C° 0.1 mm 2 mps 748 mmHg 71%
    15:00 +5°C° 0.1 mm 2 mps 749 mmHg 75%
    16:00 +4°C° 0.1 mm 2 mps 750 mmHg 79%
    17:00 +4°C° 0.1 mm 2 mps 750 mmHg 80%
    18:00 +3°C° 0.1 mm 2 mps 751 mmHg 82%
    19:00 +4°C° 0.1 mm 1 mps 752 mmHg 84%
    20:00 +4°C° 0 mm 1 mps 753 mmHg 84%
    21:00 +3°C° 0 mm 1 mps 753 mmHg 84%
    22:00 +3°C° 0 mm 1 mps 754 mmHg 85%
    23:00 +3°C° 0 mm 1 mps 755 mmHg 85%

    28 October, Sunday

    Time Temperature Precipitation Wind Pressure Humidity
    00:00 +3°C° 0 mm 1 mps 755 mmHg 85%
    01:00 +3°C° 0 mm 1 mps 756 mmHg 86%
    02:00 +3°C° 0 mm 1 mps 756 mmHg 86%
    03:00 +2°C° 0 mm 1 mps 757 mmHg 86%
    04:00 +2°C° 0 mm 1 mps 757 mmHg 86%
    05:00 +2°C° 0 mm 1 mps 758 mmHg 86%
    06:00 +2°C° 0 mm 1 mps 759 mmHg 86%
    07:00 +2°C° 0 mm 1 mps 759 mmHg 85%
    08:00 +3°C° 0 mm 1 mps 760 mmHg 80%
    09:00 +4°C° 0 mm 1 mps 761 mmHg 75%
    10:00 +5°C° 0 mm 2 mps 762 mmHg 70%
    11:00 +5°C° 0 mm 2 mps 762 mmHg 67%
    12:00 +5°C° 0 mm 2 mps 763 mmHg 65%
    13:00 +5°C° 0 mm 2 mps 763 mmHg 63%
    14:00 +4°C° 0 mm 2 mps 763 mmHg 67%
    15:00 +3°C° 0 mm 2 mps 764 mmHg 71%
    16:00 +2°C° 0 mm 2 mps 764 mmHg 75%
    17:00 +2°C° 0 mm 2 mps 764 mmHg 76%
    18:00 +1°C° 0 mm 2 mps 765 mmHg 77%
    19:00 -1°C° 0 mm 2 mps 765 mmHg 78%
    20:00 -1°C° 0 mm 2 mps 765 mmHg 77%
    21:00 -1°C° 0 mm 2 mps 766 mmHg 77%
    22:00 -1°C° 0 mm 2 mps 766 mmHg 76%
    23:00 -1°C° 0 mm 2 mps 766 mmHg 76%

    29 October, Monday

    Time Temperature Precipitation Wind Pressure Humidity
    00:00 -1°C° 0 mm 2 mps 766 mmHg 76%
    01:00 -1°C° 0 mm 2 mps 766 mmHg 76%
    02:00 -1°C° 0 mm 3 mps 766 mmHg 76%
    03:00 -1°C° 0 mm 3 mps 766 mmHg 76%
    04:00 0°C° 0 mm 3 mps 766 mmHg 76%
    05:00 -1°C° 0 mm 4 mps 766 mmHg 74%
    06:00 -1°C° 0 mm 4 mps 766 mmHg 73%
    07:00 -1°C° 0 mm 4 mps 766 mmHg 71%
    08:00 -1°C° 0 mm 5 mps 765 mmHg 67%
    09:00 0°C° 0 mm 5 mps 765 mmHg 63%
    10:00 -1°C° 0 mm 6 mps 765 mmHg 59%
    11:00 -1°C° 0 mm 6 mps 765 mmHg 58%
    12:00 -1°C° 0 mm 6 mps 764 mmHg 57%
    13:00 +1°C° 0 mm 6 mps 764 mmHg 56%
    14:00 -1°C° 0 mm 6 mps 764 mmHg 59%
    15:00 -1°C° 0 mm 6 mps 763 mmHg 62%
    16:00 -1°C° 0 mm 6 mps 763 mmHg 66%
    17:00 -1°C° 0 mm 7 mps 763 mmHg 66%
    18:00 -1°C° 0 mm 7 mps 762 mmHg 67%
    19:00 -2°C° 0 mm 7 mps 762 mmHg 67%
    20:00 -2°C° 0.1 mm 8 mps 762 mmHg 69%
    21:00 -2°C° 0.1 mm 8 mps 762 mmHg 70%
    22:00 -2°C° 0.1 mm 8 mps 761 mmHg 72%
    23:00 -2°C° 0.1 mm 8 mps 761 mmHg 73%

    30 October, Tuesday

    Time Temperature Precipitation Wind Pressure Humidity
    00:00 -2°C° 0.1 mm 8 mps 761 mmHg 73%
    01:00 -2°C° 0.1 mm 8 mps 761 mmHg 73%
    02:00 -2°C° 0 mm 8 mps 760 mmHg 74%
    03:00 -2°C° 0 mm 8 mps 760 mmHg 75%
    04:00 -2°C° 0 mm 8 mps 760 mmHg 75%
    05:00 -2°C° 0 mm 8 mps 760 mmHg 76%
    06:00 -2°C° 0 mm 8 mps 760 mmHg 77%
    07:00 -2°C° 0 mm 8 mps 760 mmHg 77%
    08:00 -1°C° 0 mm 8 mps 760 mmHg 77%
    09:00 -1°C° 0 mm 8 mps 759 mmHg 77%
    10:00 -1°C° 0 mm 8 mps 759 mmHg 77%
    11:00 -1°C° 0 mm 8 mps 759 mmHg 78%
    12:00 0°C° 0 mm 8 mps 759 mmHg 79%
    13:00 0°C° 0 mm 7 mps 759 mmHg 80%
    14:00 0°C° 0 mm 8 mps 758 mmHg 81%
    15:00 0°C° 0 mm 8 mps 758 mmHg 83%
    16:00 0°C° 0 mm 8 mps 757 mmHg 84%
    17:00 +1°C° 0.1 mm 8 mps 757 mmHg 85%
    18:00 +1°C° 0.1 mm 8 mps 757 mmHg 85%
    19:00 +2°C° 0.1 mm 8 mps 758 mmHg 86%
    20:00 +2°C° 0.1 mm 8 mps 757 mmHg 86%
    21:00 +2°C° 0.1 mm 8 mps 757 mmHg 86%
    22:00 +4°C° 0.1 mm 8 mps 757 mmHg 86%
    23:00 +4°C° 0.3 mm 8 mps 757 mmHg 86%
    Show more